Language: 


Des rapports , des résumés tant et plus, au choix de chacun....


Données statistiques de la station
Quotidien Rapport Aout 4, 2017 Unités:  Métrique    Anglais   les deux
« Précédent Jour
Suivant Jour »
Quotidien Hebdomadaire Mensuel Annuel Actuel
  Haut: Bas: Moyen:
Température: 24.4 °C 15.5 °C 19 °C
Pt de rosée: 18.0 °C 10.0 °C 14 °C
Humidité: 97 % 43 % 74 %
Vitesse du vent: 37.0 km/h 0.0 km/h 12.7 km/h
Rafales: 38.5 km/h - -
Vent:- - WSW
Pression: 1015.1 hPa 1010.0 hPa -
Précipitation: 2.3 mm    
Historical Graphs
 
 
Données statistiques pour Aout 4, 2017
Heure Température Point de rosée Pression Vent Vitesse du vent Refales Humidité Pluie (taux horaire)
00:03 18.4 °C 13.0 °C 1012.1 hPa WSW 10.1 km/h 21.2 km/h 71 % 0.0 mm
00:08 18.4 °C 13.0 °C 1012.1 hPa WSW 12.2 km/h 21.2 km/h 71 % 0.0 mm
00:13 18.4 °C 13.0 °C 1011.1 hPa WSW 16.3 km/h 17.2 km/h 71 % 0.0 mm
00:18 18.4 °C 13.0 °C 1011.1 hPa SSW 13.7 km/h 20.6 km/h 71 % 0.0 mm
00:23 18.3 °C 13.0 °C 1011.1 hPa WSW 13.7 km/h 20.6 km/h 71 % 0.0 mm
00:28 18.3 °C 13.0 °C 1011.1 hPa West 9.3 km/h 20.1 km/h 71 % 0.0 mm
00:33 18.2 °C 13.0 °C 1011.1 hPa WSW 9.0 km/h 18.0 km/h 71 % 0.0 mm
00:38 17.9 °C 13.0 °C 1011.1 hPa WSW 11.9 km/h 15.8 km/h 71 % 0.0 mm
00:43 17.7 °C 13.0 °C 1011.1 hPa WSW 10.1 km/h 15.4 km/h 72 % 0.0 mm
00:48 17.4 °C 13.0 °C 1011.1 hPa WSW 9.3 km/h 15.4 km/h 72 % 0.0 mm
00:53 17.2 °C 13.0 °C 1011.1 hPa WSW 11.9 km/h 13.0 km/h 73 % 0.0 mm
00:59 17.1 °C 13.0 °C 1011.1 hPa WSW 6.9 km/h 13.0 km/h 74 % 0.0 mm
01:04 17.0 °C 13.0 °C 1011.1 hPa West 6.9 km/h 13.0 km/h 74 % 0.0 mm
01:09 16.8 °C 13.0 °C 1011.1 hPa SW 6.1 km/h 13.0 km/h 76 % 0.0 mm
01:14 16.7 °C 13.0 °C 1011.1 hPa WSW 3.2 km/h 11.9 km/h 76 % 0.0 mm
01:19 16.4 °C 12.0 °C 1011.1 hPa Calm   10.5 km/h 76 % 0.0 mm
01:24 16.3 °C 13.0 °C 1011.1 hPa WSW 1.4 km/h 7.9 km/h 78 % 0.0 mm
01:29 16.2 °C 13.0 °C 1011.1 hPa WSW 7.6 km/h 7.9 km/h 78 % 0.0 mm
01:34 16.2 °C 13.0 °C 1011.1 hPa WSW 8.7 km/h 10.5 km/h 80 % 0.0 mm
01:39 16.2 °C 13.0 °C 1011.1 hPa SW 7.9 km/h 10.5 km/h 80 % 0.0 mm
01:44 16.2 °C 13.0 °C 1011.1 hPa WSW 7.6 km/h 10.5 km/h 81 % 0.0 mm
01:49 16.2 °C 13.0 °C 1011.1 hPa Calm   11.9 km/h 81 % 0.0 mm
01:54 16.1 °C 13.0 °C 1011.1 hPa SSW 6.4 km/h 11.9 km/h 81 % 0.0 mm
01:59 16.1 °C 13.0 °C 1010.0 hPa WSW 3.5 km/h 9.3 km/h 81 % 0.0 mm
02:04 16.1 °C 13.0 °C 1010.0 hPa Calm   9.3 km/h 81 % 0.0 mm
02:10 16.0 °C 13.0 °C 1010.0 hPa South 5.8 km/h 10.1 km/h 82 % 0.0 mm
02:15 16.0 °C 13.0 °C 1011.1 hPa Calm   10.1 km/h 82 % 0.0 mm
02:20 16.0 °C 13.0 °C 1011.1 hPa SW 9.0 km/h 11.9 km/h 82 % 0.0 mm
02:25 16.0 °C 13.0 °C 1011.1 hPa WSW 5.0 km/h 11.9 km/h 83 % 0.0 mm
02:30 16.0 °C 13.0 °C 1011.1 hPa SW 9.0 km/h 10.5 km/h 83 % 0.0 mm
02:35 15.9 °C 13.0 °C 1011.1 hPa WSW 9.7 km/h 10.1 km/h 83 % 0.0 mm
02:40 15.9 °C 13.0 °C 1011.1 hPa WSW 5.8 km/h 12.6 km/h 84 % 0.0 mm
02:45 15.8 °C 13.0 °C 1010.0 hPa WSW 6.1 km/h 12.6 km/h 84 % 0.0 mm
02:50 15.8 °C 13.0 °C 1010.0 hPa WSW 9.7 km/h 10.5 km/h 85 % 0.0 mm
02:55 15.8 °C 13.0 °C 1010.0 hPa Calm   10.5 km/h 86 % 0.0 mm
03:00 15.6 °C 13.0 °C 1010.0 hPa WSW 4.0 km/h 9.3 km/h 86 % 0.0 mm
03:05 15.5 °C 13.0 °C 1010.0 hPa SSW 5.8 km/h 9.0 km/h 86 % 0.0 mm
03:10 15.6 °C 14.0 °C 1010.0 hPa WSW 9.3 km/h 9.7 km/h 88 % 0.0 mm
03:16 15.8 °C 14.0 °C 1010.0 hPa SSW 10.1 km/h 10.1 km/h 89 % 0.0 mm
03:21 15.9 °C 14.0 °C 1010.0 hPa South 4.7 km/h 12.2 km/h 89 % 0.0 mm
03:26 15.9 °C 14.0 °C 1011.1 hPa WSW 6.9 km/h 12.2 km/h 90 % 0.0 mm
03:31 15.9 °C 14.0 °C 1011.1 hPa SW 9.7 km/h 12.2 km/h 90 % 0.0 mm
03:36 15.9 °C 14.0 °C 1011.1 hPa SSW 2.1 km/h 12.2 km/h 90 % 0.0 mm
03:41 15.9 °C 14.0 °C 1010.0 hPa South 5.5 km/h 10.5 km/h 90 % 0.0 mm
03:46 16.0 °C 14.0 °C 1010.0 hPa SSW 5.0 km/h 10.5 km/h 90 % 0.0 mm
03:51 16.1 °C 14.0 °C 1010.0 hPa SW 2.1 km/h 9.7 km/h 90 % 0.0 mm
03:56 16.3 °C 15.0 °C 1011.1 hPa WSW 6.4 km/h 12.6 km/h 91 % 0.0 mm
04:01 16.3 °C 15.0 °C 1011.1 hPa SW 10.1 km/h 12.6 km/h 91 % 0.0 mm
04:06 16.4 °C 15.0 °C 1011.1 hPa WSW 6.4 km/h 11.6 km/h 91 % 0.0 mm
04:11 16.5 °C 15.0 °C 1011.1 hPa SW 4.7 km/h 12.6 km/h 91 % 0.0 mm
04:16 16.6 °C 15.0 °C 1011.1 hPa SW 1.8 km/h 13.7 km/h 90 % 0.0 mm
04:21 16.6 °C 15.0 °C 1011.1 hPa SSW 5.8 km/h 13.7 km/h 90 % 0.0 mm
04:26 16.6 °C 15.0 °C 1011.1 hPa SSW 9.0 km/h 12.2 km/h 90 % 0.0 mm
04:31 16.5 °C 15.0 °C 1011.1 hPa WSW 6.4 km/h 11.9 km/h 90 % 0.0 mm
04:36 16.4 °C 15.0 °C 1011.1 hPa SSW 9.0 km/h 11.9 km/h 89 % 0.0 mm
04:41 16.3 °C 15.0 °C 1011.1 hPa WSW 8.7 km/h 11.9 km/h 90 % 0.0 mm
04:46 16.3 °C 15.0 °C 1011.1 hPa SSW 9.0 km/h 12.2 km/h 90 % 0.0 mm
04:51 16.3 °C 15.0 °C 1011.1 hPa WSW 7.9 km/h 14.0 km/h 90 % 0.0 mm
04:56 16.4 °C 15.0 °C 1011.1 hPa SW 10.1 km/h 14.0 km/h 91 % 0.0 mm
05:01 16.3 °C 15.0 °C 1011.1 hPa WSW 4.3 km/h 12.2 km/h 90 % 0.0 mm
05:06 16.3 °C 15.0 °C 1011.1 hPa SW 7.6 km/h 12.2 km/h 90 % 0.0 mm
05:12 16.3 °C 15.0 °C 1011.1 hPa South 9.3 km/h 12.2 km/h 91 % 0.0 mm
05:17 16.2 °C 15.0 °C 1011.1 hPa SW 2.6 km/h 11.9 km/h 91 % 0.0 mm
05:20 16.2 °C 15.0 °C 1011.1 hPa SSW 9.7 km/h 10.5 km/h 91 % 0.0 mm
05:25 16.1 °C 15.0 °C 1011.1 hPa SW 5.8 km/h 10.5 km/h 91 % 0.0 mm
05:26 16.1 °C 15.0 °C 1011.1 hPa WSW 5.0 km/h 10.5 km/h 91 % 0.0 mm
05:27 16.1 °C 15.0 °C 1011.1 hPa SW 5.8 km/h 10.5 km/h 91 % 0.0 mm
05:32 16.1 °C 15.0 °C 1011.1 hPa SW 6.1 km/h 7.6 km/h 91 % 0.0 mm
05:37 16.2 °C 15.0 °C 1011.1 hPa WSW 8.7 km/h 9.0 km/h 91 % 0.0 mm
05:42 16.3 °C 15.0 °C 1011.1 hPa SW 10.1 km/h 10.1 km/h 92 % 0.0 mm
05:47 16.3 °C 15.0 °C 1011.1 hPa SW 5.0 km/h 10.5 km/h 92 % 0.0 mm
05:52 16.4 °C 15.0 °C 1011.1 hPa SW 4.0 km/h 10.5 km/h 92 % 0.0 mm
05:58 16.4 °C 15.0 °C 1012.1 hPa South 13.0 km/h 13.0 km/h 92 % 0.0 mm
06:03 16.4 °C 15.0 °C 1012.1 hPa SW 5.5 km/h 13.0 km/h 91 % 0.0 mm
06:08 16.5 °C 15.0 °C 1012.1 hPa SSW 10.1 km/h 13.0 km/h 91 % 0.0 mm
06:13 16.5 °C 15.0 °C 1011.1 hPa SSW 3.2 km/h 13.7 km/h 91 % 0.0 mm
06:18 16.5 °C 15.0 °C 1011.1 hPa SSW 7.9 km/h 13.7 km/h 91 % 0.0 mm
06:23 16.5 °C 15.0 °C 1011.1 hPa SSW 7.9 km/h 15.1 km/h 91 % 0.0 mm
06:28 16.6 °C 15.0 °C 1011.1 hPa WSW 11.9 km/h 15.1 km/h 91 % 0.0 mm
06:33 16.6 °C 15.0 °C 1011.1 hPa SW 12.2 km/h 12.6 km/h 91 % 0.0 mm
06:38 16.6 °C 15.0 °C 1011.1 hPa SSW 13.7 km/h 13.7 km/h 91 % 0.0 mm
06:43 16.7 °C 15.0 °C 1011.1 hPa SSW 10.1 km/h 17.2 km/h 91 % 0.0 mm
06:48 16.8 °C 15.0 °C 1011.1 hPa WSW 9.3 km/h 17.2 km/h 91 % 0.0 mm
06:53 16.8 °C 15.0 °C 1011.1 hPa WSW 10.5 km/h 17.7 km/h 91 % 0.0 mm
06:58 16.9 °C 16.0 °C 1011.1 hPa SSW 13.7 km/h 17.7 km/h 91 % 0.0 mm
07:03 17.0 °C 15.0 °C 1011.1 hPa SSW 9.0 km/h 15.8 km/h 90 % 0.0 mm
07:08 17.1 °C 15.0 °C 1011.1 hPa SW 10.1 km/h 13.0 km/h 90 % 0.0 mm
07:13 17.1 °C 15.0 °C 1011.1 hPa SSW 11.6 km/h 13.0 km/h 90 % 0.0 mm
07:18 17.1 °C 15.0 °C 1011.1 hPa WSW 15.4 km/h 15.4 km/h 90 % 0.0 mm
07:23 17.1 °C 15.0 °C 1011.1 hPa WSW 11.1 km/h 15.8 km/h 90 % 0.0 mm
07:28 17.1 °C 16.0 °C 1010.0 hPa SSW 12.2 km/h 15.8 km/h 91 % 0.0 mm
07:33 17.0 °C 16.0 °C 1010.0 hPa SSW 15.8 km/h 16.3 km/h 91 % 0.0 mm
07:39 16.9 °C 16.0 °C 1010.0 hPa SW 10.8 km/h 18.0 km/h 93 % 0.0 mm
07:44 16.8 °C 16.0 °C 1011.1 hPa WSW 12.6 km/h 18.0 km/h 94 % 0.0 mm
07:49 16.6 °C 16.0 °C 1011.1 hPa SSW 12.6 km/h 17.7 km/h 95 % 0.0 mm
07:54 16.5 °C 16.0 °C 1011.1 hPa SW 8.7 km/h 16.3 km/h 95 % 0.3 mm
07:59 16.5 °C 16.0 °C 1011.1 hPa WSW 9.3 km/h 14.0 km/h 95 % 0.3 mm
08:04 16.4 °C 16.0 °C 1011.1 hPa WSW 7.9 km/h 13.0 km/h 96 % 0.5 mm
08:09 16.3 °C 16.0 °C 1011.1 hPa West 9.3 km/h 12.2 km/h 96 % 0.8 mm
08:14 16.3 °C 16.0 °C 1011.1 hPa SW 7.9 km/h 21.2 km/h 96 % 1.5 mm
08:19 16.3 °C 16.0 °C 1011.1 hPa SSW 10.1 km/h 21.2 km/h 96 % 1.8 mm
08:24 16.3 °C 16.0 °C 1011.1 hPa WSW 9.7 km/h 16.6 km/h 96 % 2.0 mm
08:29 16.5 °C 16.0 °C 1011.1 hPa SW 5.5 km/h 16.6 km/h 96 % 2.0 mm
08:32 16.5 °C 16.0 °C 1011.1 hPa SW 8.7 km/h 12.6 km/h 96 % 2.0 mm
08:37 16.6 °C 16.0 °C 1011.1 hPa SSW 9.3 km/h 9.7 km/h 97 % 2.0 mm
08:42 16.7 °C 16.0 °C 1011.1 hPa WNW 11.9 km/h 14.3 km/h 97 % 2.0 mm
08:47 16.7 °C 16.0 °C 1011.1 hPa WSW 15.1 km/h 15.1 km/h 96 % 2.0 mm
08:52 16.7 °C 16.0 °C 1011.1 hPa West 23.8 km/h 23.8 km/h 96 % 1.8 mm
08:57 16.8 °C 16.0 °C 1011.1 hPa West 21.6 km/h 23.8 km/h 96 % 1.8 mm
09:02 16.7 °C 16.0 °C 1011.1 hPa SW 15.8 km/h 21.6 km/h 96 % 1.3 mm
09:07 16.7 °C 16.0 °C 1011.1 hPa SW 6.9 km/h 16.9 km/h 95 % 1.3 mm
09:12 16.7 °C 16.0 °C 1011.1 hPa WSW 6.4 km/h 15.8 km/h 95 % 0.5 mm
09:17 16.7 °C 16.0 °C 1011.1 hPa SSW 11.9 km/h 16.9 km/h 95 % 0.3 mm
09:22 16.8 °C 16.0 °C 1011.1 hPa SSW 10.5 km/h 16.9 km/h 94 % 0.3 mm
09:27 16.9 °C 16.0 °C 1011.1 hPa WSW 9.3 km/h 15.1 km/h 94 % 0.0 mm
09:32 17.1 °C 16.0 °C 1011.1 hPa SW 12.6 km/h 16.3 km/h 93 % 0.0 mm
09:37 17.3 °C 16.0 °C 1011.1 hPa SSW 8.7 km/h 16.3 km/h 93 % 0.0 mm
09:43 17.4 °C 16.0 °C 1011.1 hPa WSW 10.5 km/h 13.0 km/h 93 % 0.0 mm
09:48 17.4 °C 16.0 °C 1011.1 hPa SW 10.8 km/h 11.6 km/h 92 % 0.0 mm
09:53 17.5 °C 16.0 °C 1011.1 hPa SW 9.7 km/h 13.7 km/h 92 % 0.0 mm
09:58 17.8 °C 16.0 °C 1012.1 hPa SW 11.9 km/h 13.7 km/h 92 % 0.0 mm
10:03 18.0 °C 17.0 °C 1012.1 hPa WSW 8.7 km/h 13.7 km/h 91 % 0.0 mm
10:08 18.0 °C 16.0 °C 1012.1 hPa SW 8.7 km/h 14.0 km/h 90 % 0.0 mm
10:13 18.1 °C 16.0 °C 1012.1 hPa SW 5.0 km/h 17.2 km/h 89 % 0.0 mm
10:18 18.4 °C 17.0 °C 1012.1 hPa SW 12.2 km/h 17.2 km/h 89 % 0.0 mm
10:23 18.7 °C 17.0 °C 1012.1 hPa SW 17.7 km/h 17.7 km/h 88 % 0.0 mm
10:28 18.8 °C 16.0 °C 1012.1 hPa SSW 9.0 km/h 17.7 km/h 86 % 0.0 mm
10:33 18.8 °C 16.0 °C 1012.1 hPa West 9.3 km/h 18.0 km/h 86 % 0.0 mm
10:38 18.9 °C 17.0 °C 1012.1 hPa WSW 14.0 km/h 18.0 km/h 86 % 0.0 mm
10:43 19.0 °C 17.0 °C 1012.1 hPa WSW 17.2 km/h 17.7 km/h 86 % 0.0 mm
10:48 19.1 °C 17.0 °C 1012.1 hPa WSW 16.6 km/h 20.9 km/h 86 % 0.0 mm
10:53 19.3 °C 17.0 °C 1012.1 hPa WSW 13.0 km/h 20.9 km/h 85 % 0.0 mm
10:58 19.4 °C 16.0 °C 1012.1 hPa WSW 24.5 km/h 24.5 km/h 83 % 0.0 mm
11:03 19.4 °C 17.0 °C 1012.1 hPa WSW 12.2 km/h 24.5 km/h 84 % 0.0 mm
11:08 19.6 °C 17.0 °C 1012.1 hPa SSW 12.6 km/h 24.5 km/h 85 % 0.0 mm
11:13 19.7 °C 17.0 °C 1013.1 hPa West 15.4 km/h 17.2 km/h 83 % 0.0 mm
11:18 19.6 °C 17.0 °C 1013.1 hPa WSW 15.4 km/h 21.2 km/h 82 % 0.0 mm
11:23 19.4 °C 16.0 °C 1013.1 hPa WSW 23.3 km/h 23.3 km/h 82 % 0.0 mm
11:28 19.2 °C 16.0 °C 1013.1 hPa SSW 16.6 km/h 23.3 km/h 82 % 0.0 mm
11:33 19.4 °C 16.0 °C 1013.1 hPa West 17.2 km/h 23.3 km/h 82 % 0.0 mm
11:38 19.6 °C 16.0 °C 1013.1 hPa West 15.8 km/h 23.8 km/h 81 % 0.0 mm
11:43 19.7 °C 16.0 °C 1013.1 hPa WSW 19.5 km/h 24.8 km/h 79 % 0.0 mm
11:48 19.6 °C 16.0 °C 1013.1 hPa WSW 12.6 km/h 24.8 km/h 79 % 0.0 mm
11:53 20.0 °C 17.0 °C 1013.1 hPa West 9.3 km/h 21.2 km/h 80 % 0.0 mm
11:58 20.8 °C 17.0 °C 1013.1 hPa WSW 20.9 km/h 23.3 km/h 79 % 0.0 mm
12:03 20.6 °C 16.0 °C 1013.1 hPa WSW 18.0 km/h 30.6 km/h 76 % 0.0 mm
12:08 20.0 °C 15.0 °C 1013.1 hPa WSW 14.0 km/h 30.6 km/h 74 % 0.0 mm
12:14 19.6 °C 15.0 °C 1013.1 hPa WSW 18.3 km/h 25.9 km/h 76 % 0.0 mm
12:19 19.8 °C 16.0 °C 1013.1 hPa West 14.3 km/h 25.9 km/h 79 % 0.0 mm
12:24 20.0 °C 16.0 °C 1013.1 hPa WSW 10.1 km/h 23.3 km/h 79 % 0.0 mm
12:29 20.9 °C 17.0 °C 1013.1 hPa SW 17.7 km/h 23.3 km/h 78 % 0.0 mm
12:30 21.1 °C 17.0 °C 1013.1 hPa SW 14.3 km/h 23.3 km/h 78 % 0.0 mm
12:35 21.7 °C 18.0 °C 1013.1 hPa WSW 13.7 km/h 20.9 km/h 78 % 0.0 mm
12:40 22.0 °C 17.0 °C 1013.1 hPa West 12.6 km/h 24.5 km/h 74 % 0.0 mm
12:45 21.7 °C 16.0 °C 1013.1 hPa WSW 20.6 km/h 36.0 km/h 71 % 0.0 mm
12:50 21.1 °C 15.0 °C 1013.1 hPa West 15.8 km/h 36.0 km/h 69 % 0.0 mm
12:55 21.2 °C 16.0 °C 1013.1 hPa WSW 20.6 km/h 34.3 km/h 70 % 0.0 mm
13:00 21.7 °C 16.0 °C 1013.1 hPa West 17.7 km/h 34.3 km/h 70 % 0.0 mm
13:05 22.3 °C 16.0 °C 1013.1 hPa WSW 23.0 km/h 28.8 km/h 68 % 0.0 mm
13:10 21.5 °C 14.0 °C 1013.1 hPa West 33.1 km/h 36.7 km/h 61 % 0.0 mm
13:15 21.2 °C 14.0 °C 1013.1 hPa West 21.2 km/h 36.7 km/h 62 % 0.3 mm
13:21 21.6 °C 14.0 °C 1013.1 hPa West 23.3 km/h 38.5 km/h 60 % 0.3 mm
13:26 22.3 °C 13.0 °C 1013.1 hPa West 14.0 km/h 38.5 km/h 55 % 0.3 mm
13:31 22.8 °C 13.0 °C 1013.1 hPa West 20.6 km/h 33.8 km/h 55 % 0.3 mm
13:36 23.0 °C 13.0 °C 1013.1 hPa WSW 32.0 km/h 33.8 km/h 53 % 0.3 mm
13:41 23.4 °C 13.0 °C 1013.1 hPa SW 20.9 km/h 32.0 km/h 52 % 0.3 mm
13:46 22.7 °C 13.0 °C 1013.1 hPa West 37.0 km/h 37.0 km/h 52 % 0.3 mm
13:51 22.7 °C 12.0 °C 1013.1 hPa West 30.9 km/h 37.0 km/h 50 % 0.3 mm
13:56 23.4 °C 13.0 °C 1013.1 hPa West 20.9 km/h 33.5 km/h 53 % 0.3 mm
14:01 23.4 °C 13.0 °C 1013.1 hPa WSW 21.2 km/h 30.9 km/h 52 % 0.3 mm
14:06 22.6 °C 12.0 °C 1013.1 hPa West 30.6 km/h 32.3 km/h 51 % 0.3 mm
14:11 22.9 °C 13.0 °C 1013.1 hPa WSW 17.7 km/h 35.2 km/h 52 % 0.0 mm
14:16 22.8 °C 13.0 °C 1013.1 hPa WSW 15.8 km/h 35.2 km/h 53 % 0.0 mm
14:21 22.4 °C 12.0 °C 1013.1 hPa West 20.9 km/h 28.8 km/h 51 % 0.0 mm
14:26 22.4 °C 13.0 °C 1013.1 hPa WSW 17.2 km/h 28.8 km/h 53 % 0.0 mm
14:31 22.4 °C 13.0 °C 1013.1 hPa WSW 17.7 km/h 32.0 km/h 54 % 0.0 mm
14:36 23.0 °C 13.0 °C 1013.1 hPa WSW 21.2 km/h 32.0 km/h 52 % 0.0 mm
14:41 22.7 °C 13.0 °C 1012.1 hPa West 17.7 km/h 27.4 km/h 52 % 0.0 mm
14:46 22.8 °C 13.0 °C 1012.1 hPa West 16.3 km/h 28.0 km/h 53 % 0.0 mm
14:51 22.8 °C 13.0 °C 1012.1 hPa West 16.6 km/h 37.5 km/h 52 % 0.0 mm
14:56 23.1 °C 13.0 °C 1013.1 hPa WSW 24.5 km/h 37.5 km/h 51 % 0.0 mm
15:01 23.5 °C 13.0 °C 1013.1 hPa WSW 16.6 km/h 32.3 km/h 50 % 0.0 mm
15:06 23.6 °C 13.0 °C 1013.1 hPa West 20.9 km/h 32.3 km/h 50 % 0.0 mm
15:11 23.7 °C 13.0 °C 1013.1 hPa WSW 16.9 km/h 29.9 km/h 50 % 0.0 mm
15:16 23.6 °C 12.0 °C 1013.1 hPa West 19.8 km/h 32.3 km/h 48 % 0.0 mm
15:19 23.8 °C 13.0 °C 1013.1 hPa West 23.3 km/h 32.3 km/h 49 % 0.0 mm
15:24 23.6 °C 12.0 °C 1013.1 hPa West 20.1 km/h 36.0 km/h 48 % 0.0 mm
15:29 24.4 °C 13.0 °C 1013.1 hPa WSW 16.9 km/h 36.0 km/h 50 % 0.0 mm
15:34 23.8 °C 13.0 °C 1013.1 hPa WSW 23.8 km/h 28.5 km/h 49 % 0.0 mm
15:39 23.0 °C 12.0 °C 1013.1 hPa WSW 25.6 km/h 32.8 km/h 49 % 0.0 mm
15:44 22.7 °C 13.0 °C 1013.1 hPa WSW 10.5 km/h 32.8 km/h 52 % 0.0 mm
15:49 22.7 °C 13.0 °C 1013.1 hPa West 17.7 km/h 31.4 km/h 52 % 0.0 mm
15:55 22.7 °C 13.0 °C 1013.1 hPa West 24.8 km/h 28.5 km/h 54 % 0.0 mm
16:00 23.1 °C 13.0 °C 1013.1 hPa WSW 11.6 km/h 31.7 km/h 54 % 0.0 mm
16:05 22.8 °C 13.0 °C 1013.1 hPa West 17.7 km/h 31.7 km/h 54 % 0.0 mm
16:10 23.6 °C 14.0 °C 1013.1 hPa West 16.9 km/h 30.6 km/h 53 % 0.0 mm
16:15 22.8 °C 12.0 °C 1013.1 hPa WSW 22.4 km/h 35.6 km/h 51 % 0.0 mm
16:20 23.5 °C 13.0 °C 1013.1 hPa WSW 24.5 km/h 35.6 km/h 52 % 0.0 mm
16:25 22.6 °C 13.0 °C 1013.1 hPa West 16.6 km/h 32.0 km/h 52 % 0.0 mm
16:30 23.2 °C 14.0 °C 1013.1 hPa WSW 22.4 km/h 37.8 km/h 54 % 0.0 mm
16:35 23.7 °C 14.0 °C 1013.1 hPa WSW 23.3 km/h 37.8 km/h 53 % 0.0 mm
16:40 23.0 °C 13.0 °C 1013.1 hPa WSW 18.3 km/h 28.5 km/h 53 % 0.0 mm
16:45 23.4 °C 13.0 °C 1013.1 hPa West 15.8 km/h 37.5 km/h 52 % 0.0 mm
16:50 23.7 °C 14.0 °C 1013.1 hPa WSW 21.2 km/h 37.5 km/h 53 % 0.0 mm
16:55 23.0 °C 13.0 °C 1013.1 hPa WSW 28.0 km/h 30.9 km/h 51 % 0.0 mm
17:00 22.9 °C 13.0 °C 1013.1 hPa WSW 23.8 km/h 30.9 km/h 53 % 0.0 mm
17:05 22.7 °C 13.0 °C 1013.1 hPa SW 21.6 km/h 28.0 km/h 54 % 0.0 mm
17:10 22.4 °C 13.0 °C 1013.1 hPa West 28.5 km/h 28.5 km/h 54 % 0.0 mm
17:15 22.3 °C 13.0 °C 1013.1 hPa SW 23.3 km/h 38.5 km/h 54 % 0.0 mm
17:20 22.2 °C 13.0 °C 1013.1 hPa West 23.3 km/h 38.5 km/h 54 % 0.0 mm
17:25 22.6 °C 13.0 °C 1013.1 hPa WSW 15.8 km/h 25.3 km/h 54 % 0.0 mm
17:35 22.8 °C 13.0 °C 1013.1 hPa WSW 25.6 km/h 28.5 km/h 53 % 0.0 mm
17:40 22.6 °C 13.0 °C 1014.1 hPa West 13.7 km/h 25.6 km/h 53 % 0.0 mm
17:45 23.0 °C 12.0 °C 1014.1 hPa West 16.9 km/h 28.5 km/h 50 % 0.0 mm
17:50 23.3 °C 11.0 °C 1014.1 hPa West 32.3 km/h 32.3 km/h 46 % 0.0 mm
17:55 23.4 °C 11.0 °C 1013.1 hPa WSW 26.2 km/h 36.4 km/h 44 % 0.0 mm
18:00 23.4 °C 10.0 °C 1013.1 hPa West 28.0 km/h 36.4 km/h 43 % 0.0 mm
18:05 23.7 °C 11.0 °C 1013.1 hPa West 14.0 km/h 29.1 km/h 44 % 0.0 mm
18:10 23.7 °C 10.0 °C 1014.1 hPa West 23.3 km/h 29.9 km/h 43 % 0.0 mm
18:15 23.7 °C 11.0 °C 1014.1 hPa West 20.6 km/h 29.9 km/h 44 % 0.0 mm
18:21 23.6 °C 10.0 °C 1014.1 hPa West 20.9 km/h 32.3 km/h 43 % 0.0 mm
18:26 23.3 °C 11.0 °C 1013.1 hPa WSW 21.6 km/h 32.3 km/h 45 % 0.0 mm
18:31 23.4 °C 11.0 °C 1013.1 hPa WSW 7.9 km/h 31.7 km/h 45 % 0.0 mm
18:36 22.9 °C 11.0 °C 1013.1 hPa WSW 27.7 km/h 27.7 km/h 46 % 0.0 mm
18:41 23.0 °C 11.0 °C 1013.1 hPa WSW 27.7 km/h 30.9 km/h 47 % 0.0 mm
18:46 22.5 °C 11.0 °C 1013.1 hPa West 20.6 km/h 32.3 km/h 46 % 0.0 mm
18:51 22.9 °C 12.0 °C 1013.1 hPa West 14.0 km/h 32.3 km/h 48 % 0.0 mm
18:56 23.2 °C 12.0 °C 1014.1 hPa WSW 20.1 km/h 23.8 km/h 48 % 0.0 mm
19:01 22.3 °C 12.0 °C 1014.1 hPa WSW 9.3 km/h 22.7 km/h 50 % 0.0 mm
19:06 22.2 °C 12.0 °C 1014.1 hPa West 17.2 km/h 27.0 km/h 50 % 0.0 mm
19:11 21.8 °C 11.0 °C 1014.1 hPa West 15.8 km/h 36.7 km/h 50 % 0.0 mm
19:16 21.6 °C 12.0 °C 1014.1 hPa West 11.9 km/h 36.7 km/h 52 % 0.0 mm
19:21 21.6 °C 12.0 °C 1014.1 hPa West 20.9 km/h 24.5 km/h 53 % 0.0 mm
19:26 21.6 °C 12.0 °C 1014.1 hPa WSW 21.2 km/h 21.6 km/h 54 % 0.0 mm
19:31 21.5 °C 12.0 °C 1014.1 hPa WSW 18.0 km/h 24.8 km/h 54 % 0.0 mm
19:36 21.5 °C 12.0 °C 1014.1 hPa West 15.1 km/h 24.8 km/h 55 % 0.0 mm
19:41 22.0 °C 13.0 °C 1014.1 hPa SW 19.8 km/h 23.3 km/h 55 % 0.0 mm
19:47 21.8 °C 12.0 °C 1014.1 hPa West 24.8 km/h 24.8 km/h 53 % 0.0 mm
19:52 21.6 °C 12.0 °C 1014.1 hPa WSW 16.6 km/h 27.0 km/h 53 % 0.0 mm
19:57 21.6 °C 12.0 °C 1014.1 hPa West 13.7 km/h 28.8 km/h 54 % 0.0 mm
20:02 21.4 °C 12.0 °C 1014.1 hPa WSW 14.3 km/h 28.8 km/h 53 % 0.0 mm
20:07 21.0 °C 12.0 °C 1014.1 hPa West 16.6 km/h 27.7 km/h 54 % 0.0 mm
20:12 20.9 °C 12.0 °C 1014.1 hPa SSW 15.8 km/h 28.0 km/h 56 % 0.0 mm
20:17 20.6 °C 12.0 °C 1014.1 hPa West 11.6 km/h 28.0 km/h 57 % 0.0 mm
20:22 20.3 °C 12.0 °C 1014.1 hPa WSW 12.6 km/h 21.2 km/h 59 % 0.0 mm
20:27 20.2 °C 13.0 °C 1014.1 hPa West 15.8 km/h 17.7 km/h 60 % 0.0 mm
20:32 20.0 °C 13.0 °C 1014.1 hPa West 9.3 km/h 17.2 km/h 62 % 0.0 mm
20:37 19.9 °C 13.0 °C 1014.1 hPa West 16.6 km/h 17.2 km/h 63 % 0.0 mm
20:42 19.8 °C 13.0 °C 1014.1 hPa WSW 10.5 km/h 17.2 km/h 64 % 0.0 mm
20:47 19.7 °C 13.0 °C 1014.1 hPa WSW 13.7 km/h 15.8 km/h 65 % 0.0 mm
20:52 19.6 °C 13.0 °C 1014.1 hPa WSW 14.0 km/h 20.6 km/h 65 % 0.0 mm
20:57 19.5 °C 13.0 °C 1014.1 hPa WSW 13.7 km/h 20.6 km/h 65 % 0.0 mm
21:02 19.4 °C 13.0 °C 1014.1 hPa West 13.0 km/h 20.9 km/h 64 % 0.0 mm
21:07 19.3 °C 13.0 °C 1014.1 hPa SSW 12.6 km/h 20.9 km/h 64 % 0.0 mm
21:12 19.2 °C 13.0 °C 1014.1 hPa SSW 12.6 km/h 18.3 km/h 65 % 0.0 mm
21:17 19.1 °C 13.0 °C 1014.1 hPa WSW 12.6 km/h 16.6 km/h 66 % 0.0 mm
21:22 19.1 °C 13.0 °C 1014.1 hPa West 13.7 km/h 17.2 km/h 67 % 0.0 mm
21:27 19.0 °C 13.0 °C 1014.1 hPa West 10.1 km/h 17.2 km/h 67 % 0.0 mm
21:32 18.9 °C 13.0 °C 1014.1 hPa WSW 14.0 km/h 14.3 km/h 68 % 0.0 mm
21:37 18.7 °C 13.0 °C 1014.1 hPa WSW 6.4 km/h 14.3 km/h 68 % 0.0 mm
21:42 18.5 °C 13.0 °C 1014.1 hPa WSW 8.7 km/h 12.6 km/h 69 % 0.0 mm
21:47 18.3 °C 13.0 °C 1014.1 hPa WSW 9.0 km/h 12.6 km/h 69 % 0.0 mm
21:52 17.9 °C 13.0 °C 1014.1 hPa Calm   10.1 km/h 70 % 0.0 mm
21:57 17.7 °C 12.0 °C 1014.1 hPa Calm   9.0 km/h 70 % 0.0 mm
22:02 17.3 °C 12.0 °C 1014.1 hPa Calm   4.7 km/h 71 % 0.0 mm
22:07 17.2 °C 13.0 °C 1014.1 hPa WSW 4.0 km/h 6.4 km/h 72 % 0.0 mm
22:12 17.0 °C 13.0 °C 1014.1 hPa Calm   7.6 km/h 75 % 0.0 mm
22:17 16.9 °C 13.0 °C 1014.1 hPa Calm   7.6 km/h 75 % 0.0 mm
22:22 16.8 °C 13.0 °C 1014.1 hPa Calm   6.9 km/h 77 % 0.0 mm
22:27 16.7 °C 13.0 °C 1014.1 hPa West 6.9 km/h 7.6 km/h 78 % 0.0 mm
22:32 16.5 °C 13.0 °C 1014.1 hPa WSW 5.5 km/h 7.9 km/h 79 % 0.0 mm
22:37 16.6 °C 13.0 °C 1014.1 hPa SSW 8.7 km/h 13.0 km/h 81 % 0.0 mm
22:43 16.8 °C 13.0 °C 1014.1 hPa WSW 5.8 km/h 13.0 km/h 81 % 0.0 mm
22:48 16.8 °C 13.0 °C 1014.1 hPa WSW 4.7 km/h 11.6 km/h 81 % 0.0 mm
22:53 17.0 °C 14.0 °C 1014.1 hPa West 6.9 km/h 13.0 km/h 81 % 0.0 mm
22:58 17.2 °C 14.0 °C 1014.1 hPa WNW 6.1 km/h 13.0 km/h 81 % 0.0 mm
23:03 17.3 °C 14.0 °C 1014.1 hPa West 9.0 km/h 10.8 km/h 81 % 0.0 mm
23:08 17.3 °C 14.0 °C 1014.1 hPa Calm   9.3 km/h 80 % 0.0 mm
23:13 17.1 °C 14.0 °C 1014.1 hPa Calm   9.3 km/h 80 % 0.0 mm
23:18 16.9 °C 14.0 °C 1014.1 hPa Calm   6.4 km/h 80 % 0.0 mm
23:23 16.8 °C 13.0 °C 1014.1 hPa Calm   6.4 km/h 80 % 0.0 mm
23:28 16.8 °C 13.0 °C 1014.1 hPa West 7.9 km/h 9.7 km/h 80 % 0.0 mm
23:33 16.8 °C 13.0 °C 1014.1 hPa Calm   9.7 km/h 80 % 0.0 mm
23:38 16.9 °C 14.0 °C 1014.1 hPa SW 1.8 km/h 12.2 km/h 82 % 0.0 mm
23:43 17.0 °C 14.0 °C 1015.1 hPa West 6.1 km/h 12.2 km/h 81 % 0.0 mm
23:48 17.1 °C 14.0 °C 1015.1 hPa West 6.1 km/h 12.6 km/h 81 % 0.0 mm
23:53 17.1 °C 14.0 °C 1015.1 hPa WNW 9.0 km/h 12.6 km/h 81 % 0.0 mm
23:58 17.0 °C 14.0 °C 1014.1 hPa Calm   10.8 km/h 82 % 0.0 mm
Le Gheer Warneton
Courtoisie de Weather Underground - 2.25 mb

Mise a jour : 18/12/2017 04:19:13
Généré par Cumulus 1.9.4 (1099)